Location: Betzi
(47.2343°N, 9.5260°E)
Time: 22:47:49
(UTC+00:00)

MOZ.5/SAFIR/RUBIN 5/SL-8 - Pass Details

Date: 27 May 2022
Orbit: 677 x 704 km, 98.2° (Epoch: 29 June)

Event Time Altitude Azimuth Distance (km) Brightness Sun altitude
Exits shadow 00:35:02 37° 170° (S) 1,071 4.3 -19.4°
Maximum altitude 00:36:54 85° 256° (WSW) 707 3.7 -19.3°
Drops below altitude 10° 00:41:41 10° 345° (NNW) 2,177 7.1 -19.0°
Sets 00:43:58 0° 346° (NNW) 3,102 8.1 -18.9°
